NR5ON-13 Weather Reports


Display with metric or nautical units.
time (UTC)temp
F
wind
direction
speed
MPH
gust
MPH
rain 1hr
in
rain 24hr
in
rain mn
in
humidity
%
barometer
mb
20210730143405 70 233 1.0 7.0 0.00 0.00 0.00 53 1030.7
20210730142855 70 218 0.0 7.0 0.00 0.00 0.00 56 1030.7
20210730142341 70 227 0.0 3.0 0.00 0.00 0.00 55 1030.6
20210730141849 69 227 0.0 3.0 0.00 0.00 0.00 56 1030.5
20210730141400 69 229 1.0 6.0 0.00 0.00 0.00 57 1030.4
20210730140850 69 229 1.0 6.0 0.00 0.00 0.00 57 1030.3
20210730140339 68 139 0.0 2.0 0.00 0.00 0.00 58 1030.1
20210730135905 67 139 0.0 2.0 0.00 0.00 0.00 61 1030.1
20210730135415 66 139 0.0 3.0 0.00 0.00 0.00 62 1030.1
20210730134840 65 139 1.0 3.0 0.00 0.00 0.00 64 1030.1
20210730134406 64 139 0.0 0.0 0.00 0.00 0.00 68 1030.1
20210730133912 64 139 0.0 0.0 0.00 0.00 0.00 71 1030.1
20210730133358 63 139 0.0 0.0 0.00 0.00 0.00 72 1030.0
20210730132349 62 139 0.0 0.0 0.00 0.00 0.00 73 1030.0
20210730131840 61 139 0.0 0.0 0.00 0.00 0.00 74 1030.0
20210730131348 61 139 0.0 0.0 0.00 0.00 0.00 74 1030.0
20210730130836 61 139 0.0 0.0 0.00 0.00 0.00 74 1029.9
20210730130404 60 139 0.0 0.0 0.00 0.00 0.00 75 1029.9
20210730125850 60 139 0.0 0.0 0.00 0.00 0.00 75 1029.9
20210730125338 60 139 0.0 0.0 0.00 0.00 0.00 76 1029.9
20210730124847 59 139 0.0 0.0 0.00 0.00 0.00 75 1029.9
20210730124338 60 139 0.0 0.0 0.00 0.00 0.00 75 1029.9
20210730123846 60 139 0.0 0.0 0.00 0.00 0.00 74 1029.9
20210730123339 59 139 0.0 0.0 0.00 0.00 0.00 74 1029.9
20210730122847 59 139 0.0 0.0 0.00 0.00 0.00 74 1029.7
20210730122415 59 139 0.0 0.0 0.00 0.00 0.00 74 1029.7
20210730121841 60 139 0.0 0.0 0.00 0.00 0.00 73 1029.7
20210730121352 60 139 0.0 0.0 0.00 0.00 0.00 72 1029.6
20210730120841 60 139 0.0 0.0 0.00 0.00 0.00 72 1029.6
20210730120349 60 139 0.0 0.0 0.00 0.00 0.00 72 1029.4
20210730115836 60 139 0.0 0.0 0.00 0.00 0.00 72 1029.5
20210730115344 60 139 0.0 0.0 0.00 0.00 0.00 71 1029.5
20210730114910 60 139 0.0 0.0 0.00 0.00 0.00 71 1029.4
20210730114338 61 139 0.0 0.0 0.00 0.00 0.00 70 1029.4
20210730113848 61 139 0.0 0.0 0.00 0.00 0.00 70 1029.5
20210730113356 61 139 0.0 0.0 0.00 0.00 0.00 69 1029.4
20210730112841 61 139 0.0 0.0 0.00 0.00 0.00 69 1029.4
20210730112349 61 139 0.0 0.0 0.00 0.00 0.00 68 1029.5
20210730111837 62 139 0.0 0.0 0.00 0.00 0.00 68 1029.4
20210730111400 62 139 0.0 0.0 0.00 0.00 0.00 68 1029.4
20210730110847 62 139 0.0 0.0 0.00 0.00 0.00 67 1029.4
20210730110336 62 139 0.0 0.0 0.00 0.00 0.00 67 1029.4
20210730105845 63 139 0.0 0.0 0.00 0.00 0.00 66 1029.4
20210730105410 63 139 0.0 0.0 0.00 0.00 0.00 66 1029.4
20210730104838 63 139 0.0 0.0 0.00 0.00 0.00 65 1029.5
20210730104350 63 139 0.0 1.0 0.00 0.00 0.00 65 1029.4
20210730103837 64 139 0.0 2.0 0.00 0.00 0.00 64 1029.4
20210730103348 64 139 0.0 2.0 0.00 0.00 0.00 63 1029.4
20210730102837 64 139 0.0 2.0 0.00 0.00 0.00 63 1029.4
20210730102408 64 139 0.0 2.0 0.00 0.00 0.00 63 1029.5
20210730101836 65 139 0.0 1.0 0.00 0.00 0.00 62 1029.5
20210730101345 65 139 0.0 1.0 0.00 0.00 0.00 62 1029.5
20210730100913 66 139 0.0 0.0 0.00 0.00 0.00 61 1029.5
20210730100338 66 139 0.0 1.0 0.00 0.00 0.00 61 1029.6
20210730095843 66 139 0.0 2.0 0.00 0.00 0.00 61 1029.6
20210730095336 66 139 0.0 4.0 0.00 0.00 0.00 61 1029.7
20210730094904 66 139 0.0 4.0 0.00 0.00 0.00 61 1029.7
20210730094350 66 139 0.0 3.0 0.00 0.00 0.00 61 1029.6
20210730093834 66 139 0.0 6.0 0.00 0.00 0.00 61 1029.5
20210730093343 65 126 0.0 2.0 0.00 0.00 0.00 61 1029.6
20210730092852 65 126 0.0 4.0 0.00 0.00 0.00 61 1029.6
20210730092338 65 126 1.0 4.0 0.00 0.00 0.00 62 1029.7
20210730091846 65 126 0.0 4.0 0.00 0.00 0.00 62 1029.7
20210730091336 65 126 1.0 4.0 0.00 0.00 0.00 62 1029.6
20210730090905 65 135 0.0 6.0 0.00 0.00 0.00 63 1029.7
20210730090352 65 135 0.0 6.0 0.00 0.00 0.00 63 1029.6
20210730085842 65 111 1.0 3.0 0.00 0.00 0.00 63 1029.7
20210730085347 65 109 0.0 3.0 0.00 0.00 0.00 63 1029.7
20210730084856 65 109 0.0 4.0 0.00 0.00 0.00 63 1029.6
20210730084400 65 108 0.0 4.0 0.00 0.00 0.00 63 1029.7
20210730083847 66 95 0.0 4.0 0.00 0.00 0.00 63 1029.8
20210730083355 66 53 0.0 4.0 0.00 0.00 0.00 63 1029.8
20210730082845 66 93 0.0 4.0 0.00 0.00 0.00 63 1029.8
20210730082354 66 108 1.0 4.0 0.00 0.00 0.00 63 1029.8
20210730081841 66 117 0.0 6.0 0.00 0.00 0.00 63 1029.9
20210730081350 66 123 2.0 6.0 0.00 0.00 0.00 63 1029.9
20210730080837 66 129 1.0 4.0 0.00 0.00 0.00 63 1029.9
20210730080406 66 123 0.0 5.0 0.00 0.00 0.00 62 1029.9
20210730075836 66 128 2.0 8.0 0.00 0.00 0.00 62 1029.9
20210730075345 66 123 3.0 8.0 0.00 0.00 0.00 62 1030.0
20210730074833 66 125 2.0 6.0 0.00 0.00 0.00 61 1030.1
20210730074344 66 135 2.0 8.0 0.00 0.00 0.00 61 1030.1
20210730073913 66 120 1.0 4.0 0.00 0.00 0.00 61 1030.1
20210730073400 66 119 1.0 3.0 0.00 0.00 0.00 61 1030.1
20210730072907 66 119 2.0 5.0 0.00 0.00 0.00 60 1030.1
20210730072334 66 136 1.0 5.0 0.00 0.00 0.00 60 1030.2
20210730071900 66 136 1.0 4.0 0.00 0.00 0.00 60 1030.2
20210730071348 66 136 0.0 8.0 0.00 0.00 0.00 60 1030.2
20210730070855 66 136 4.0 8.0 0.00 0.00 0.00 60 1030.2
20210730070401 66 132 2.0 9.0 0.00 0.00 0.00 60 1030.1
20210730065847 67 135 1.0 6.0 0.00 0.00 0.00 60 1030.1
20210730065339 67 122 2.0 7.0 0.00 0.00 0.00 60 1030.0
20210730064847 67 103 3.0 8.0 0.00 0.00 0.00 59 1030.0
20210730064336 67 117 3.0 8.0 0.00 0.00 0.00 59 1029.9
20210730063845 67 123 3.0 6.0 0.00 0.00 0.00 60 1029.9
20210730063353 67 116 2.0 6.0 0.00 0.00 0.00 60 1029.9
20210730062838 67 158 2.0 6.0 0.00 0.00 0.00 60 1029.9
20210730062346 67 132 2.0 8.0 0.00 0.00 0.00 60 1029.9
20210730061850 67 124 4.0 8.0 0.00 0.00 0.00 59 1030.0
20210730061357 67 172 4.0 8.0 0.00 0.00 0.00 59 1030.1
20210730060843 67 150 5.0 9.0 0.00 0.00 0.00 59 1030.0
20210730060334 67 150 3.0 9.0 0.00 0.00 0.00 59 1029.9
20210730055840 68 123 3.0 8.0 0.00 0.00 0.00 59 1029.9
20210730055348 68 133 4.0 9.0 0.00 0.00 0.00 59 1029.9
20210730054914 68 135 3.0 9.0 0.00 0.00 0.00 59 1029.9
20210730054342 68 145 3.0 10.0 0.00 0.00 0.00 58 1030.0
20210730053849 68 118 0.0 9.0 0.00 0.00 0.00 58 1030.0
20210730053338 68 147 2.0 10.0 0.00 0.00 0.00 57 1030.0
20210730052845 68 148 3.0 10.0 0.00 0.00 0.00 57 1030.1
20210730052351 68 142 2.0 9.0 0.00 0.00 0.00 57 1030.0
20210730051838 68 142 3.0 9.0 0.00 0.00 0.00 56 1030.0
20210730051348 69 123 1.0 7.0 0.00 0.00 0.00 56 1029.9
20210730050841 69 120 1.0 5.0 0.00 0.00 0.00 56 1029.8
20210730050408 69 138 2.0 8.0 0.00 0.00 0.00 55 1029.8
20210730045852 69 113 3.0 9.0 0.00 0.00 0.00 55 1029.9
20210730045337 69 136 3.0 9.0 0.00 0.00 0.00 55 1029.9
20210730044845 69 135 2.0 8.0 0.00 0.00 0.00 54 1029.9
20210730044411 69 120 2.0 7.0 0.00 0.00 0.00 54 1029.8
20210730043834 70 121 1.0 6.0 0.00 0.00 0.00 54 1029.8
20210730043343 70 130 2.0 8.0 0.00 0.00 0.00 54 1029.7
20210730042851 70 63 2.0 9.0 0.00 0.00 0.00 53 1029.7
20210730042339 70 123 3.0 9.0 0.00 0.00 0.00 53 1029.6
20210730041909 70 120 2.0 8.0 0.00 0.00 0.00 53 1029.7
20210730041355 70 126 4.0 7.0 0.00 0.00 0.00 52 1029.6
20210730040848 70 153 1.0 8.0 0.00 0.00 0.00 52 1029.4
20210730040336 71 126 2.0 8.0 0.00 0.00 0.00 52 1029.3
20210730035845 71 143 1.0 6.0 0.00 0.00 0.00 52 1029.3
20210730035353 71 131 3.0 6.0 0.00 0.00 0.00 51 1029.1
20210730034839 71 144 2.0 7.0 0.00 0.00 0.00 51 1029.0
20210730034347 71 116 2.0 7.0 0.00 0.00 0.00 50 1028.9
20210730033854 72 119 3.0 7.0 0.00 0.00 0.00 50 1028.8
20210730033342 72 113 2.0 7.0 0.00 0.00 0.00 49 1028.7
20210730032850 72 134 2.0 10.0 0.00 0.00 0.00 49 1028.5
20210730032359 72 135 3.0 10.0 0.00 0.00 0.00 48 1028.5
20210730031848 72 130 3.0 10.0 0.00 0.00 0.00 48 1028.3
20210730031401 72 130 4.0 9.0 0.00 0.00 0.00 48 1028.2
20210730030907 73 142 3.0 9.0 0.00 0.00 0.00 47 1028.1
20210730030412 73 118 3.0 9.0 0.00 0.00 0.00 47 1028.0
20210730025839 73 130 4.0 11.0 0.00 0.00 0.00 47 1027.9
20210730025348 73 142 3.0 11.0 0.00 0.00 0.00 46 1027.7
20210730024836 73 82 4.0 11.0 0.00 0.00 0.00 45 1027.7
20210730024348 74 109 5.0 13.0 0.00 0.00 0.00 45 1027.6
20210730023836 74 123 4.0 11.0 0.00 0.00 0.00 45 1027.5
20210730023344 74 123 2.0 12.0 0.00 0.00 0.00 45 1027.3
20210730022853 74 149 2.0 12.0 0.00 0.00 0.00 44 1027.3
20210730022339 75 88 4.0 12.0 0.00 0.00 0.00 43 1027.1
20210730021852 75 87 3.0 11.0 0.00 0.00 0.00 42 1027.0
20210730021339 75 97 5.0 13.0 0.00 0.00 0.00 42 1026.9
20210730020848 75 130 3.0 14.0 0.00 0.00 0.00 41 1026.8
20210730020335 76 141 5.0 13.0 0.00 0.00 0.00 41 1026.7
20210730015902 76 134 4.0 13.0 0.00 0.00 0.00 40 1026.6
20210730015348 76 145 5.0 10.0 0.00 0.00 0.00 40 1026.5
20210730014837 76 127 2.0 12.0 0.00 0.00 0.00 40 1026.5
20210730014343 77 132 5.0 12.0 0.00 0.00 0.00 39 1026.5
20210730013850 77 140 5.0 9.0 0.00 0.00 0.00 39 1026.4
20210730013339 77 112 3.0 10.0 0.00 0.00 0.00 38 1026.2
20210730012851 77 70 3.0 13.0 0.00 0.00 0.00 37 1026.1
20210730012337 78 107 6.0 13.0 0.00 0.00 0.00 36 1025.9
20210730011908 78 142 5.0 15.0 0.00 0.00 0.00 36 1026.0
20210730011334 78 105 7.0 17.0 0.00 0.00 0.00 36 1026.0
20210730010839 78 103 9.0 17.0 0.00 0.00 0.00 35 1025.8
20210730010347 79 129 4.0 14.0 0.00 0.00 0.00 35 1025.8
20210730005834 79 138 8.0 14.0 0.00 0.00 0.00 34 1025.9
20210730005338 79 114 2.0 13.0 0.00 0.00 0.00 35 1025.9
20210730004846 79 150 5.0 18.0 0.00 0.00 0.00 34 1025.8
20210730004337 80 130 5.0 21.0 0.00 0.00 0.00 34 1025.8
20210730003850 80 121 9.0 21.0 0.00 0.00 0.00 33 1025.8
20210730003340 80 216 7.0 17.0 0.00 0.00 0.00 33 1025.6
20210730002846 80 77 4.0 15.0 0.00 0.00 0.00 33 1025.6
20210730002352 80 117 7.0 17.0 0.00 0.00 0.00 33 1025.5
20210730001838 80 112 5.0 17.0 0.00 0.00 0.00 32 1025.5
20210730001346 80 135 4.0 16.0 0.00 0.00 0.00 33 1025.4
20210730000913 81 140 8.0 16.0 0.00 0.00 0.00 33 1025.5
20210730000340 81 98 6.0 16.0 0.00 0.00 0.00 33 1025.5
20210729235845 81 140 6.0 16.0 0.00 0.00 0.00 33 1025.5
20210729235352 81 134 5.0 15.0 0.00 0.00 0.00 33 1025.6
20210729234844 82 69 5.0 14.0 0.00 0.00 0.00 32 1025.6
20210729234330 82 85 3.0 14.0 0.00 0.00 0.00 32 1025.7
20210729233841 82 91 2.0 12.0 0.00 0.00 0.00 32 1025.7
20210729233345 81 100 5.0 17.0 0.00 0.00 0.00 32 1025.7
20210729232833 82 151 8.0 17.0 0.00 0.00 0.00 31 1025.7
20210729232400 82 134 5.0 16.0 0.00 0.00 0.00 32 1025.7
20210729231846 82 163 7.0 15.0 0.00 0.00 0.00 32 1025.7
20210729231352 82 178 6.0 11.0 0.00 0.00 0.00 31 1025.7
20210729230839 82 84 3.0 14.0 0.00 0.00 0.00 31 1025.8
20210729230407 82 102 3.0 14.0 0.00 0.00 0.00 31 1025.8
20210729225854 83 125 5.0 14.0 0.00 0.00 0.00 31 1025.9
20210729225344 83 74 3.0 15.0 0.00 0.00 0.00 31 1025.9
20210729224911 83 121 3.0 10.0 0.00 0.00 0.00 31 1025.9
20210729223842 83 148 5.0 11.0 0.00 0.00 0.00 31 1025.9
20210729223410 83 103 4.0 13.0 0.00 0.00 0.00 31 1026.0
20210729222857 83 134 5.0 13.0 0.00 0.00 0.00 30 1026.1
20210729222346 83 163 3.0 12.0 0.00 0.00 0.00 31 1026.2
20210729221834 83 117 2.0 18.0 0.00 0.00 0.00 31 1026.1
20210729220905 83 94 5.0 15.0 0.00 0.00 0.00 32 1026.2
20210729220331 83 138 5.0 11.0 0.00 0.00 0.00 32 1026.2
20210729215842 83 149 3.0 12.0 0.00 0.00 0.00 33 1026.2
20210729215350 83 111 4.0 18.0 0.00 0.00 0.00 33 1026.2
20210729214837 83 140 6.0 18.0 0.00 0.00 0.00 33 1026.4
20210729214348 83 111 7.0 15.0 0.00 0.00 0.00 32 1026.4
20210729213914 84 123 6.0 15.0 0.00 0.00 0.00 33 1026.3
20210729213337 83 130 4.0 11.0 0.00 0.00 0.00 33 1026.3
20210729212844 83 119 5.0 13.0 0.00 0.00 0.00 32 1026.5
20210729212352 83 138 6.0 13.0 0.00 0.00 0.00 32 1026.7
20210729211839 83 153 5.0 15.0 0.00 0.00 0.00 32 1026.6
20210729211404 83 142 5.0 15.0 0.00 0.00 0.00 32 1026.7
20210729210847 82 116 4.0 16.0 0.00 0.00 0.00 31 1026.7
20210729210334 83 169 6.0 16.0 0.00 0.00 0.00 32 1026.8
20210729205901 83 134 4.0 11.0 0.00 0.00 0.00 32 1026.7
20210729205346 83 150 6.0 12.0 0.00 0.00 0.00 33 1026.8
20210729204834 82 140 3.0 12.0 0.00 0.00 0.00 34 1026.9
20210729204342 82 134 3.0 13.0 0.00 0.00 0.00 33 1026.9
20210729203850 83 109 6.0 13.0 0.00 0.00 0.00 33 1026.8
20210729203355 83 150 3.0 8.0 0.00 0.00 0.00 34 1026.8
20210729202840 82 139 1.0 9.0 0.00 0.00 0.00 34 1027.0
20210729202347 81 113 3.0 15.0 0.00 0.00 0.00 34 1027.1
20210729201849 82 136 4.0 15.0 0.00 0.00 0.00 34 1027.1
20210729201337 82 129 3.0 12.0 0.00 0.00 0.00 34 1027.0
20210729200842 82 115 4.0 15.0 0.00 0.00 0.00 35 1027.0
20210729200349 82 98 7.0 15.0 0.00 0.00 0.00 35 1027.2
20210729195835 82 118 5.0 14.0 0.00 0.00 0.00 34 1027.2
20210729195347 82 120 6.0 14.0 0.00 0.00 0.00 35 1027.3
20210729194852 81 209 8.0 14.0 0.00 0.00 0.00 35 1027.3
20210729194343 81 158 4.0 16.0 0.00 0.00 0.00 38 1027.2
20210729193850 81 119 6.0 16.0 0.00 0.00 0.00 37 1027.5
20210729193359 81 194 6.0 14.0 0.00 0.00 0.00 38 1027.5
20210729192905 81 127 5.0 14.0 0.00 0.00 0.00 38 1027.6
20210729192410 81 103 6.0 13.0 0.00 0.00 0.00 38 1027.7
20210729191838 80 185 5.0 17.0 0.00 0.00 0.00 39 1027.6
20210729191349 80 148 7.0 17.0 0.00 0.00 0.00 38 1027.7
20210729190837 80 198 5.0 16.0 0.00 0.00 0.00 39 1027.9
20210729190405 80 128 6.0 16.0 0.00 0.00 0.00 39 1027.9
20210729185850 80 169 6.0 13.0 0.00 0.00 0.00 40 1028.0
20210729185338 80 157 7.0 14.0 0.00 0.00 0.00 40 1028.0
20210729184850 80 147 5.0 14.0 0.00 0.00 0.00 41 1027.9
20210729184333 80 169 7.0 11.0 0.00 0.00 0.00 40 1028.0
20210729183841 80 173 5.0 16.0 0.00 0.00 0.00 41 1028.1
20210729183349 80 170 5.0 16.0 0.00 0.00 0.00 41 1028.1
20210729182857 79 254 5.0 11.0 0.00 0.00 0.00 42 1028.1
20210729182342 79 200 5.0 12.0 0.00 0.00 0.00 42 1028.1
20210729181849 79 205 5.0 14.0 0.00 0.00 0.00 41 1028.3
20210729181337 79 146 5.0 16.0 0.00 0.00 0.00 42 1028.3
20210729180844 79 176 6.0 16.0 0.00 0.00 0.00 42 1028.3
20210729180352 80 183 5.0 13.0 0.00 0.00 0.00 41 1028.3
20210729175842 79 84 6.0 13.0 0.00 0.00 0.00 40 1028.4
20210729174838 79 144 4.0 16.0 0.00 0.00 0.00 41 1028.3
20210729174343 79 153 6.0 13.0 0.00 0.00 0.00 40 1028.4
20210729173852 79 191 6.0 13.0 0.00 0.00 0.00 41 1028.5
20210729173400 78 236 5.0 13.0 0.00 0.00 0.00 42 1028.4
20210729172846 78 165 5.0 13.0 0.00 0.00 0.00 42 1028.7
20210729172351 78 144 6.0 16.0 0.00 0.00 0.00 41 1028.7
20210729171900 79 191 5.0 16.0 0.00 0.00 0.00 41 1028.6
20210729171407 78 166 4.0 15.0 0.00 0.00 0.00 42 1028.5
20210729170852 78 121 7.0 14.0 0.00 0.00 0.00 41 1028.6
20210729170339 78 183 5.0 11.0 0.00 0.00 0.00 41 1028.6
20210729165845 78 168 6.0 10.0 0.00 0.00 0.00 42 1028.6
20210729165338 78 183 6.0 14.0 0.00 0.00 0.00 42 1028.5
20210729164842 78 135 6.0 14.0 0.00 0.00 0.00 42 1028.6
20210729164348 77 151 4.0 12.0 0.00 0.00 0.00 44 1028.6
20210729163855 77 165 6.0 11.0 0.00 0.00 0.00 43 1028.6
20210729163344 77 196 5.0 9.0 0.00 0.00 0.00 44 1028.5
20210729162852 77 172 4.0 14.0 0.00 0.00 0.00 44 1028.5
20210729162400 77 175 6.0 14.0 0.00 0.00 0.00 43 1028.6
20210729161847 77 193 5.0 11.0 0.00 0.00 0.00 42 1028.6
20210729161338 77 167 3.0 12.0 0.00 0.00 0.00 42 1028.6
20210729160906 77 123 6.0 12.0 0.00 0.00 0.00 41 1028.5
20210729160412 77 177 3.0 12.0 0.00 0.00 0.00 42 1028.5
20210729155838 77 193 4.0 10.0 0.00 0.00 0.00 42 1028.5
20210729154911 76 184 3.0 9.0 0.00 0.00 0.00 43 1028.6
20210729154342 76 138 3.0 7.0 0.00 0.00 0.00 43 1028.6
20210729153850 76 166 3.0 7.0 0.00 0.00 0.00 42 1028.6
20210729153336 76 180 4.0 6.0 0.00 0.00 0.00 42 1028.7
20210729152847 76 188 3.0 8.0 0.00 0.00 0.00 43 1028.7
20210729152412 75 189 4.0 8.0 0.00 0.00 0.00 42 1028.7
20210729151836 75 169 3.0 7.0 0.00 0.00 0.00 43 1028.8
20210729150845 75 207 2.0 7.0 0.00 0.00 0.00 45 1028.7
20210729150334 74 153 2.0 7.0 0.00 0.00 0.00 46 1028.7
20210729145842 74 150 2.0 6.0 0.00 0.00 0.00 46 1028.8
20210729144835 73 237 0.0 5.0 0.00 0.00 0.00 50 1028.7
20210729144340 73 188 1.0 3.0 0.00 0.00 0.00 50 1028.8
20210729143852 72 187 0.0 3.0 0.00 0.00 0.00 51 1028.7